Location: Mahannah Oil Field
(37.4664°N, 96.6003°W)
Time: 06:45:59
(UTC+00:00)

Tiros 1 despin weight - Pass Details

Date: 23 January 2021
Orbit: 593 x 642 km, 48.2° (Epoch: 06 March)

Event Time Altitude Azimuth Distance (km) Brightness Sun altitude
Rises 00:31:37 0° 299° (WNW) 2,858 ? -10.4°
Reaches altitude 10° 00:34:25 10° 316° (NW) 1,946 ? -11.0°
Maximum altitude 00:37:48 21° 5° (N) 1,370 ? -11.6°
Enters shadow 00:40:13 14° 45° (NE) 1,686 ? -12.1°
